Starlink 30830

operational
NORAD ID: 58194 Int'l Des: 2023-167 Owner: SPXS Country: US Constellation: starlink
LEOCIRCULAR

关于 Starlink 30830

正在加载描述...

实时位置

正在加载3D地球...

即将过境

高度历史

Altitude vs Time

uPlot chart will show altitude changes over time

两行轨道根数

1 58194U 23167V 25351.04514044 .00000616 00000-0 60643-4 0 9990
2 58194 43.0028 234.9568 0000462 245.1146 114.9648 15.02535204118525
Epoch: Dec 17, 2025 • Age: 19 hours

当前状态

高度 562.1 km
速度 7.58 km/s
星下点 -15.44°S, 175.11°W
发射日期 Oct 30, 2023
运行时间 2.1 years
类型 internet

技术详情

分类 Payload
质量 730.00 kg
干质量 700.00 kg
总质量 730.00 kg
长度 0.30 m
直径 4.10 m
跨度 29.00 m
形状 Box + pan
制造商 SPXS
平台类型 Starlink V2M
阶段状态 In Orbit
所有者/国家 SPXS/US

大型星座

Loading constellations...